Weather in Barsuki

Russia / Republic of Ingushetia     43°15′39″N   44°48′33″E
temp.,
°C
wind,
m/s
gust,
m/s
humid.,
%
clouds,
%
prec.,
mm/h
press.,
hPa
HPBL,
m
12 august, fri
fri1200:00+20sse11710 0.1 101011
03:00+20sse11670 0.1 101111
06:00+21ssw11660 0.0 101211
09:00+27nnw11485 0.0 1011740
12:00+31n22388 0.0 10101973
15:00+31nnw1242100 0.2 10091788
18:00+27nw2255100 0.2 101035
21:00+19wsw348524 2.5 101380
13 august, sat
sat1300:00+18sw22920 0.6 101226
03:00+18sw11880 0.6 101211
06:00+18ssw22900 0.0 101249
09:00+25nw11630 0.0 1011552
12:00+30ne33421 0.0 10091487
15:00+32ene22330 0.0 10071909
18:00+30ene24370 0.0 1006217
21:00+22e23460 0.0 100834
14 august, sun
sun1400:00+20sse11500 0.0 100711
03:00+19ssw22520 0.0 100716
06:00+19sw22530 0.0 100722
09:00+27w01382 0.0 1006542
12:00+32ene33240 0.0 10041270
15:00+35sw02230 0.0 10031809
18:00+30wsw35400 0.0 1005198
21:00+24s12510 0.0 100612
15 august, mon
mon1500:00+22ssw22450 0.0 100618
03:00+21sw22450 0.0 100615
06:00+21ssw22500 0.0 100719
09:00+29nw11350 0.0 1006541
12:00+34ene33250 0.0 10041497
15:00+36ene22230 0.0 10031835
18:00+33wsw22350 0.0 100446
21:00+25ssw22500 0.0 100519
16 august, tue
tue1600:00+23s22390 0.0 100621
03:00+22ssw22370 0.0 100716
06:00+22sw22420 0.0 100829
09:00+29wsw45370 0.0 1009558
12:00+34w33280 0.0 10081332
15:00+36wsw32240 0.0 10072022
18:00+33sw34320 0.0 1008156
21:00+26ssw33470 0.0 100922